Back to catalog

BREEZE-M DEB

LostHEO
NORAD 38586·DEBRIS·🇷🇺 Russia

Launched Mar 14, 2008 from Baikonur Cosmodrome

Loading…

Next Passes (next 24 hours)

TLE

StaleSource: Space-Track

Epoch: Feb 28, 2026, 04:25 UTC

1 38586U 08011AH  26059.18419435 -.00000048  00000-0  00000-0 0  9990
2 38586  49.7007 352.4808 6257844 246.6809  38.2022  2.91964199158696

Track BREEZE-M DEB in real time with AllMySat

Download on the App Store